User: anonymous   Login
Location: Fort Wayne
(41.1310°N, 85.1290°W)
Time: 22:49:31
(UTC-05:00)
Language:

Cosmos 2227 Rocket - Orbit

View from above orbital plane
View from above orbital plane
View from above satellite
View from above satellite

Ground track
Ground track

The orbit data is extracted from the following two-line orbital elements,

1 22285U 92093B   16342.94211257 +.00000254 +00000-0 +15548-3 0  9996
2 22285 071.0222 253.4617 0002540 035.0759 325.0531 14.15002438235202
Epoch (UTC): 07 December 2016 22:36:38
Eccentricity: 0.0002540
inclination: 71.0222°
perigee height: 840 km
apogee height: 844 km
right ascension of ascending node: 253.4617°
argument of perigee: 35.0759°
revolutions per day: 14.15002438
mean anomaly at epoch: 325.0531°
orbit number at epoch: 23520

The dashed part of the orbit path shows where the satellite is in the earth's shadow,  

DLR